Inquirer Daily News

Weather

Get conditions and forecasts for any City, State, ZIP code or Country:  
Trenton, NJ
on Saturday, March 24, 2012

Saturday
Previous Day Next Day
Daily Summary
 ActualAverageRecord
Temperature
Mean Temperature °F 44°F  
Max Temperature 64°F 54°F 76°F (1988)
Min Temperature 51°F 34°F 12°F (1906)
Degree Days
Heating Degree Days 7 21  
Month to date heating degree days 275 592  
Since 1 July heating degree days 3188 4406  
Cooling Degree Days 0 0  
Month to date cooling degree days 11 0  
Year to date cooling degree days 11 0  
Growing Degree Days7 (Base °F )  
Moisture
Dew Point 39°F   
Average Humidity 48    
Maximum Humidity 72    
Minimum Humidity 23    
Precipitation
Precipitation 0.01 in 0.13 in 1.20 in (1989)
Month to date precipitation 0.53 3.15  
Year to date precipitation 5.60 8.62  
Wind
Wind Speed 9 mph   
Max Wind Speed 20 mph   
Max Gust Speed 25 mph   
Visibility 10 miles   
Events Rain   

Key: T is trace of precipitation, MM is missing value
Source: NWS Daily Summary
Time(EDT)TemperatureDew PointHumidity Pressure Visibility Wind DirectionWind SpeedGust SpeedPrecipitationEvents Conditions
12:53 AM 55.9°F 44.1°F 64% 30.02 in 10.0 miles Calm Calm - N/A   Clear
1:53 AM 54.0°F 43.0°F 66% 30.01 in 10.0 miles ENE 3.5 mph - N/A   Clear
2:53 AM 55.0°F 42.1°F 62% 30.00 in 10.0 miles Calm Calm - N/A   Clear
3:53 AM 52.0°F 42.1°F 69% 29.99 in 10.0 miles East 4.6 mph - N/A   Clear
4:53 AM 55.0°F 44.1°F 67% 30.00 in 10.0 miles ENE 6.9 mph - N/A   Mostly Cloudy
5:53 AM 57.0°F 45.0°F 64% 30.00 in 10.0 miles ENE 4.6 mph - 0.00 in   Overcast
6:53 AM 55.9°F 46.0°F 69% 30.00 in 10.0 miles East 9.2 mph - N/A   Clear
7:53 AM 59.0°F 46.0°F 62% 30.01 in 10.0 miles East 11.5 mph - N/A   Clear
8:53 AM 60.1°F 46.9°F 62% 30.02 in 10.0 miles ESE 11.5 mph 21.9 mph N/A   Clear
9:53 AM 62.1°F 37.0°F 39% 30.03 in 10.0 miles ESE 11.5 mph - N/A   Clear
10:53 AM 64.0°F 26.1°F 24% 30.03 in 10.0 miles SE 16.1 mph 25.3 mph N/A   Clear
11:53 AM 63.0°F 24.1°F 23% 30.04 in 10.0 miles ESE 16.1 mph 21.9 mph N/A   Mostly Cloudy
12:53 PM 62.1°F 27.0°F 26% 30.03 in 10.0 miles ESE 13.8 mph - 0.00 in Rain Light Rain
1:53 PM 57.9°F 33.1°F 39% 30.01 in 10.0 miles ESE 12.7 mph - 0.01 in Rain Light Rain
2:53 PM 59.0°F 34.0°F 39% 30.00 in 10.0 miles SE 15.0 mph - 0.00 in Rain Light Rain
3:53 PM 60.1°F 32.0°F 35% 29.98 in 10.0 miles ESE 12.7 mph 24.2 mph 0.00 in   Overcast
4:53 PM 59.0°F 35.1°F 41% 29.97 in 10.0 miles ESE 12.7 mph - 0.00 in   Mostly Cloudy
5:53 PM 57.2°F 35.6°F 44% 29.97 in 10.0 miles ESE 12.7 mph 18.4 mph N/A   Mostly Cloudy
6:53 PM 57.0°F 36.0°F 45% 29.97 in 10.0 miles SE 10.4 mph - N/A   Mostly Cloudy
7:53 PM 55.0°F 33.1°F 43% 29.94 in 10.0 miles East 11.5 mph - 0.00 in   Overcast
8:36 PM 53.6°F 35.6°F 51% 29.96 in 10.0 miles East 9.2 mph - 0.00 in   Overcast
8:53 PM 54.0°F 36.0°F 51% 29.95 in 10.0 miles East 10.4 mph - 0.00 in   Overcast
9:53 PM 51.8°F 42.8°F 71% 29.99 in 4.0 miles ESE 4.6 mph - N/A Rain Light Rain
10:44 PM 50.0°F 44.6°F 82% 29.96 in 8.0 miles ENE 6.9 mph - 0.06 in Rain Light Rain
10:53 PM 50.0°F 45.0°F 83% 29.94 in 10.0 miles ENE 6.9 mph - 0.06 in Rain Light Rain
11:53 PM 50.0°F 46.0°F 86% 29.92 in 10.0 miles East 9.2 mph - 0.02 in   Overcast
11:57 PM 50.0°F 46.4°F 87% 29.94 in 10.0 miles East 8.1 mph - N/A   Overcast
Astronomy
Sunrise:06:55 AM (EDT) Moon Rise:07:32 AM (EDT)3/24
Sunset:07:15 PM (EDT) Moon Set:09:33 PM (EDT)3/24
Moon Phase
Mar. 24 Mar. 30 Apr. 06 Apr. 13 Apr. 21

Copyright © 2014 The Weather Underground, Inc.